BAW4 TBPB-EGLL

Flight info

Callsign BAW4
Flight time N/A
Altitude 57000
Route SALAB DCT 3422N04000W/M080F570 4136N03000W 4500N02353W 4649N02000W 4849N01443W DCT LULOX/N0456F570 DCT SIRIC
Aircraft CONC/H-SDE2E3FGHIRYW/X

Departure

Time 2026-04-27 22:09
Airport Grantley Adams International Airport (TBPB)

Arrival

Time N/A
Airport London Heathrow Airport (EGLL)
Time Latitude Longitude Altitude Speed Heading
2026-04-27 21:44 13.07857 -59.48880 182 ft 0 kts 346°
2026-04-27 21:58 13.07852 -59.48879 182 ft 4 kts 346°
2026-04-27 21:58 13.07825 -59.48872 182 ft 4 kts 346°
2026-04-27 21:59 13.07799 -59.48866 182 ft 4 kts 344°
2026-04-27 21:59 13.07773 -59.48861 182 ft 4 kts 333°
2026-04-27 21:59 13.07748 -59.48853 182 ft 3 kts 315°
2026-04-27 21:59 13.07728 -59.48843 182 ft 4 kts 288°
2026-04-27 22:00 13.07708 -59.48836 182 ft 4 kts 243°
2026-04-27 22:00 13.07717 -59.48819 182 ft 4 kts 231°
2026-04-27 22:00 13.07735 -59.48805 182 ft 2 kts 255°
2026-04-27 22:00 13.07736 -59.48804 182 ft 0 kts 256°
2026-04-27 22:03 13.07735 -59.48808 182 ft 4 kts 256°
2026-04-27 22:03 13.07723 -59.48858 182 ft 10 kts 256°
2026-04-27 22:04 13.07701 -59.48944 182 ft 15 kts 256°
2026-04-27 22:04 13.07678 -59.49039 182 ft 12 kts 256°
2026-04-27 22:04 13.07658 -59.49121 182 ft 13 kts 256°
2026-04-27 22:04 13.07633 -59.49221 182 ft 14 kts 256°
2026-04-27 22:05 13.07613 -59.49303 182 ft 12 kts 256°
2026-04-27 22:05 13.07589 -59.49400 182 ft 15 kts 256°
2026-04-27 22:05 13.07565 -59.49499 182 ft 14 kts 256°
2026-04-27 22:05 13.07528 -59.49645 182 ft 26 kts 256°
2026-04-27 22:06 13.07475 -59.49861 182 ft 33 kts 256°
2026-04-27 22:06 13.07420 -59.50085 182 ft 32 kts 255°
2026-04-27 22:06 13.07369 -59.50299 182 ft 32 kts 256°
2026-04-27 22:06 13.07315 -59.50517 182 ft 31 kts 256°
2026-04-27 22:07 13.07266 -59.50692 181 ft 17 kts 240°
2026-04-27 22:07 13.07162 -59.50715 181 ft 14 kts 169°
2026-04-27 22:07 13.07105 -59.50703 181 ft 3 kts 163°
2026-04-27 22:07 13.07102 -59.50688 182 ft 2 kts 108°
2026-04-27 22:08 13.07107 -59.50679 182 ft 0 kts 76°
2026-04-27 22:08 13.07108 -59.50675 182 ft 9 kts 76°
2026-04-27 22:08 13.07191 -59.50343 184 ft 89 kts 76°
2026-04-27 22:08 13.07320 -59.49817 182 ft 140 kts 75°
2026-04-27 22:09 13.07623 -59.48598 189 ft 210 kts 76°
2026-04-27 22:09 13.08019 -59.47062 1058 ft 227 kts 75°
2026-04-27 22:09 13.08466 -59.45505 2596 ft 231 kts 73°
2026-04-27 22:09 13.08998 -59.43841 3584 ft 255 kts 72°
2026-04-27 22:10 13.09522 -59.42117 3948 ft 252 kts 75°
2026-04-27 22:10 13.10128 -59.40446 4485 ft 251 kts 52°
2026-04-27 22:10 13.11513 -59.39356 5116 ft 254 kts 23°
2026-04-27 22:10 13.13045 -59.38498 5883 ft 252 kts 39°
2026-04-27 22:11 13.14417 -59.37349 6663 ft 256 kts 41°
2026-04-27 22:11 13.15757 -59.36129 7378 ft 259 kts 43°
2026-04-27 22:11 13.17106 -59.34859 8127 ft 267 kts 43°
2026-04-27 22:11 13.18497 -59.33520 8674 ft 286 kts 44°
2026-04-27 22:12 13.19966 -59.32096 9449 ft 296 kts 42°
2026-04-27 22:12 13.21679 -59.30851 10242 ft 309 kts 31°
2026-04-27 22:12 13.23568 -59.29707 10965 ft 321 kts 32°
2026-04-27 22:12 13.25484 -59.28454 11720 ft 333 kts 36°
2026-04-27 22:13 13.27398 -59.27050 12455 ft 344 kts 38°
2026-04-27 22:13 13.29279 -59.25533 13214 ft 351 kts 40°
2026-04-27 22:13 13.31179 -59.23934 13963 ft 355 kts 41°
2026-04-27 22:13 13.33089 -59.22296 14642 ft 362 kts 42°
2026-04-27 22:14 13.34967 -59.20548 15345 ft 366 kts 46°
2026-04-27 22:14 13.36785 -59.18694 16070 ft 371 kts 47°
2026-04-27 22:14 13.38606 -59.16780 16791 ft 377 kts 47°
2026-04-27 22:14 13.40457 -59.14827 17552 ft 383 kts 47°
2026-04-27 22:15 13.42332 -59.12855 18320 ft 389 kts 47°
2026-04-27 22:15 13.44245 -59.10855 18983 ft 395 kts 47°
2026-04-27 22:15 13.46179 -59.08837 19670 ft 399 kts 47°
2026-04-27 22:15 13.48139 -59.06787 20373 ft 404 kts 48°
2026-04-27 22:16 13.50118 -59.04718 21093 ft 408 kts 47°
2026-04-27 22:16 13.52115 -59.02626 21837 ft 412 kts 47°
2026-04-27 22:16 13.54105 -59.00545 22573 ft 415 kts 47°
2026-04-27 22:16 13.56133 -58.98423 23352 ft 418 kts 47°
2026-04-27 22:17 13.58188 -58.96273 24054 ft 421 kts 47°
2026-04-27 22:17 13.60245 -58.94118 24722 ft 424 kts 47°
2026-04-27 22:17 13.62321 -58.91943 25408 ft 426 kts 47°
2026-04-27 22:17 13.64406 -58.89759 26109 ft 428 kts 47°
2026-04-27 22:18 13.66493 -58.87572 26825 ft 429 kts 47°
2026-04-27 22:18 13.68588 -58.85376 27552 ft 430 kts 46°
2026-04-27 22:18 13.70682 -58.83181 28303 ft 430 kts 47°
2026-04-27 22:18 13.72798 -58.80960 28731 ft 440 kts 47°
2026-04-27 22:19 13.74982 -58.78668 28905 ft 456 kts 47°
2026-04-27 22:19 13.77243 -58.76296 28979 ft 473 kts 46°
2026-04-27 22:19 13.79572 -58.73852 29020 ft 483 kts 46°
2026-04-27 22:20 13.84291 -58.68898 29021 ft 485 kts 47°
2026-04-27 22:20 13.89011 -58.63937 29020 ft 485 kts 47°
2026-04-27 22:20 13.91396 -58.61429 29030 ft 498 kts 47°
2026-04-27 22:21 13.93850 -58.58847 29531 ft 504 kts 46°
2026-04-27 22:21 13.96307 -58.56264 30316 ft 505 kts 46°
2026-04-27 22:21 13.98762 -58.53679 31024 ft 504 kts 46°
2026-04-27 22:21 14.01218 -58.51094 31737 ft 504 kts 46°
2026-04-27 22:22 14.03637 -58.48547 32411 ft 505 kts 46°
2026-04-27 22:22 14.06115 -58.45934 32762 ft 514 kts 45°
2026-04-27 22:22 14.08640 -58.43275 32909 ft 526 kts 45°
2026-04-27 22:22 14.11229 -58.40548 32981 ft 539 kts 45°
2026-04-27 22:23 14.13889 -58.37743 33019 ft 553 kts 45°
2026-04-27 22:23 14.16613 -58.34870 33038 ft 567 kts 45°
2026-04-27 22:23 14.19408 -58.31919 33049 ft 579 kts 45°
2026-04-27 22:24 14.25069 -58.25943 33046 ft 584 kts 45°
2026-04-27 22:24 14.30750 -58.19940 33033 ft 585 kts 45°
2026-04-27 22:25 14.36437 -58.13926 33034 ft 587 kts 45°
2026-04-27 22:25 14.42143 -58.07887 33032 ft 588 kts 45°
2026-04-27 22:26 14.47809 -58.01886 33034 ft 588 kts 45°
2026-04-27 22:26 14.53524 -57.95829 33033 ft 589 kts 45°
2026-04-27 22:27 14.59245 -57.89758 33034 ft 589 kts 45°
2026-04-27 22:27 14.64960 -57.83693 33036 ft 589 kts 45°
2026-04-27 22:28 14.70694 -57.77600 33035 ft 590 kts 45°
2026-04-27 22:28 14.76413 -57.71519 33035 ft 591 kts 45°
2026-04-27 22:29 14.82140 -57.65425 33037 ft 591 kts 45°
2026-04-27 22:29 14.87886 -57.59305 33044 ft 594 kts 46°
2026-04-27 22:30 14.93642 -57.53169 33042 ft 594 kts 46°
2026-04-27 22:30 14.99390 -57.47038 33046 ft 594 kts 46°
2026-04-27 22:31 15.05119 -57.40937 33045 ft 594 kts 44°
2026-04-27 22:31 15.11495 -57.35442 33236 ft 604 kts 36°
2026-04-27 22:31 15.14899 -57.32843 33353 ft 610 kts 35°
2026-04-27 22:32 15.18352 -57.30254 33474 ft 616 kts 35°
2026-04-27 22:32 15.21857 -57.27632 33623 ft 623 kts 35°
2026-04-27 22:32 15.25393 -57.24978 33786 ft 635 kts 35°
2026-04-27 22:32 15.29009 -57.22258 33953 ft 648 kts 35°
2026-04-27 22:33 15.32696 -57.19483 34082 ft 661 kts 35°
2026-04-27 22:33 15.36440 -57.16664 34201 ft 672 kts 35°
2026-04-27 22:33 15.40253 -57.13790 34313 ft 683 kts 35°
2026-04-27 22:33 15.44138 -57.10861 34421 ft 694 kts 35°
2026-04-27 22:34 15.48072 -57.07895 34540 ft 705 kts 35°
2026-04-27 22:34 15.52008 -57.04923 34797 ft 713 kts 35°
2026-04-27 22:34 15.56039 -57.01879 35090 ft 720 kts 35°
2026-04-27 22:34 15.60166 -56.98762 35380 ft 728 kts 35°
2026-04-27 22:35 15.64219 -56.95700 35617 ft 736 kts 36°
2026-04-27 22:35 15.68392 -56.92544 35839 ft 744 kts 36°
2026-04-27 22:35 15.72593 -56.89365 36104 ft 751 kts 36°
2026-04-27 22:35 15.76834 -56.86155 36363 ft 758 kts 36°
2026-04-27 22:36 15.81110 -56.82916 36607 ft 764 kts 36°
2026-04-27 22:36 15.85428 -56.79644 36836 ft 771 kts 36°
2026-04-27 22:36 15.89777 -56.76347 37062 ft 778 kts 36°
2026-04-27 22:36 15.94166 -56.73017 37260 ft 785 kts 36°
2026-04-27 22:37 15.98591 -56.69658 37471 ft 791 kts 36°
2026-04-27 22:37 16.03063 -56.66262 37681 ft 797 kts 36°
2026-04-27 22:37 16.07560 -56.62844 37895 ft 804 kts 36°
2026-04-27 22:37 16.12089 -56.59401 38130 ft 810 kts 36°
2026-04-27 22:38 16.16672 -56.55915 38318 ft 818 kts 36°
2026-04-27 22:38 16.21280 -56.52407 38504 ft 825 kts 36°
2026-04-27 22:38 16.25931 -56.48865 38738 ft 832 kts 36°
2026-04-27 22:38 16.30619 -56.45292 38981 ft 838 kts 36°
2026-04-27 22:39 16.35345 -56.41687 39292 ft 845 kts 36°
2026-04-27 22:39 16.40051 -56.38097 39673 ft 854 kts 36°
2026-04-27 22:39 16.44871 -56.34416 40152 ft 864 kts 36°
2026-04-27 22:39 16.49749 -56.30690 40708 ft 877 kts 36°
2026-04-27 22:40 16.54716 -56.26893 41396 ft 892 kts 36°
2026-04-27 22:40 16.59777 -56.23020 42170 ft 909 kts 36°
2026-04-27 22:40 16.64921 -56.19082 42964 ft 927 kts 36°
2026-04-27 22:40 16.70182 -56.15052 43710 ft 948 kts 36°
2026-04-27 22:41 16.75554 -56.10934 44554 ft 968 kts 36°
2026-04-27 22:41 16.81037 -56.06727 45282 ft 988 kts 36°
2026-04-27 22:41 16.86629 -56.02434 46008 ft 1007 kts 36°
2026-04-27 22:41 16.92326 -55.98056 46637 ft 1025 kts 36°
2026-04-27 22:42 16.98114 -55.93606 47155 ft 1044 kts 36°
2026-04-27 22:42 17.04016 -55.89064 47688 ft 1061 kts 36°
2026-04-27 22:42 17.10014 -55.84446 48209 ft 1077 kts 36°
2026-04-27 22:42 17.16098 -55.79756 48751 ft 1092 kts 36°
2026-04-27 22:43 17.22246 -55.75013 49183 ft 1107 kts 36°
2026-04-27 22:43 17.28493 -55.70189 49657 ft 1122 kts 36°
2026-04-27 22:43 17.34727 -55.65372 50088 ft 1135 kts 36°
2026-04-27 22:43 17.41109 -55.60436 50578 ft 1147 kts 36°
2026-04-27 22:44 17.47549 -55.55450 51314 ft 1155 kts 36°
2026-04-27 22:44 17.54009 -55.50446 52586 ft 1155 kts 36°
2026-04-27 22:44 17.60465 -55.45439 53958 ft 1154 kts 36°
2026-04-27 22:44 17.66918 -55.40430 55176 ft 1155 kts 36°
2026-04-27 22:45 17.73392 -55.35400 55900 ft 1160 kts 36°
2026-04-27 22:45 17.79889 -55.30347 56337 ft 1167 kts 36°
2026-04-27 22:45 17.86433 -55.25254 56596 ft 1174 kts 36°
2026-04-27 22:45 17.93017 -55.20124 56785 ft 1182 kts 36°
2026-04-27 22:46 17.99639 -55.14960 56898 ft 1190 kts 36°
2026-04-27 22:46 18.13018 -55.04511 57028 ft 1205 kts 36°
2026-04-27 22:47 18.26552 -54.93921 57083 ft 1219 kts 36°
2026-04-27 22:47 18.40190 -54.83227 57114 ft 1226 kts 36°
2026-04-27 22:48 18.53899 -54.72456 57107 ft 1227 kts 36°
2026-04-27 22:48 18.67588 -54.61679 57126 ft 1229 kts 36°
2026-04-27 22:49 18.81284 -54.50874 57127 ft 1230 kts 36°
2026-04-27 22:49 18.94917 -54.40096 57137 ft 1231 kts 36°
2026-04-27 22:50 19.08617 -54.29243 57136 ft 1232 kts 36°
2026-04-27 22:50 19.22349 -54.18341 57134 ft 1234 kts 36°
2026-04-27 22:51 19.36094 -54.07405 57157 ft 1235 kts 36°
2026-04-27 22:51 19.49827 -53.96455 57144 ft 1236 kts 36°
2026-04-27 22:52 19.63567 -53.85476 57156 ft 1237 kts 36°
2026-04-27 22:52 19.77316 -53.74466 57166 ft 1238 kts 36°
2026-04-27 22:53 19.91080 -53.63419 57149 ft 1238 kts 36°
2026-04-27 22:53 20.04736 -53.52434 57177 ft 1239 kts 36°
2026-04-27 22:54 20.18483 -53.41351 57160 ft 1240 kts 36°
2026-04-27 22:54 20.32237 -53.30238 57160 ft 1240 kts 36°
2026-04-27 22:55 20.43655 -53.20993 57152 ft 1240 kts 36°
2026-04-27 22:55 20.57404 -53.09836 57163 ft 1241 kts 36°
2026-04-27 22:56 20.71138 -52.98666 57186 ft 1241 kts 36°
2026-04-27 22:56 20.84867 -52.87473 57166 ft 1242 kts 36°
2026-04-27 22:57 20.98606 -52.76246 57171 ft 1242 kts 36°
2026-04-27 22:57 21.12331 -52.65005 57165 ft 1242 kts 36°
2026-04-27 22:58 21.26057 -52.53735 57177 ft 1243 kts 36°
2026-04-27 22:58 21.39788 -52.42433 57187 ft 1243 kts 36°
2026-04-27 22:59 21.53495 -52.31125 57179 ft 1243 kts 36°
2026-04-27 22:59 21.67216 -52.19777 57181 ft 1243 kts 36°
2026-04-27 23:00 21.87762 -52.02732 57178 ft 1244 kts 36°
2026-04-27 23:00 22.01447 -51.91343 57218 ft 1243 kts 36°
2026-04-27 23:01 22.15045 -51.79998 57174 ft 1244 kts 36°
2026-04-27 23:01 22.28733 -51.68550 57197 ft 1244 kts 35°
2026-04-27 23:02 22.42408 -51.57083 57190 ft 1244 kts 36°
2026-04-27 23:02 22.56068 -51.45599 57196 ft 1244 kts 36°
2026-04-27 23:03 22.69734 -51.34082 57205 ft 1244 kts 36°
2026-04-27 23:03 22.83374 -51.22555 57224 ft 1244 kts 35°
2026-04-27 23:04 22.97021 -51.10993 57206 ft 1244 kts 35°
2026-04-27 23:04 23.10648 -50.99417 57230 ft 1244 kts 35°
2026-04-27 23:05 23.24279 -50.87807 57228 ft 1244 kts 35°
2026-04-27 23:05 23.37811 -50.76251 57215 ft 1244 kts 35°
2026-04-27 23:06 23.51413 -50.64604 57213 ft 1244 kts 35°
2026-04-27 23:06 23.65018 -50.52922 57249 ft 1243 kts 35°
2026-04-27 23:07 23.78617 -50.41214 57206 ft 1244 kts 35°
2026-04-27 23:07 23.92191 -50.29496 57214 ft 1244 kts 35°
2026-04-27 23:08 24.05699 -50.17802 57232 ft 1244 kts 35°
2026-04-27 23:08 24.19258 -50.06031 57224 ft 1244 kts 35°
2026-04-27 23:09 24.32835 -49.94212 57217 ft 1245 kts 35°
2026-04-27 23:09 24.46389 -49.82379 57223 ft 1246 kts 35°
2026-04-27 23:10 24.59943 -49.70514 57246 ft 1246 kts 35°
2026-04-27 23:10 24.73503 -49.58608 57229 ft 1246 kts 35°
2026-04-27 23:11 24.87049 -49.46682 57229 ft 1247 kts 35°
2026-04-27 23:11 25.00600 -49.34715 57263 ft 1248 kts 35°
2026-04-27 23:12 25.14070 -49.22786 57228 ft 1249 kts 35°
2026-04-27 23:12 25.27613 -49.10757 57240 ft 1250 kts 35°
2026-04-27 23:13 25.41162 -48.98687 57258 ft 1251 kts 35°
2026-04-27 23:13 25.54723 -48.86571 57261 ft 1252 kts 36°
2026-04-27 23:14 25.68277 -48.74423 57243 ft 1253 kts 36°
2026-04-27 23:14 25.81841 -48.62231 57234 ft 1254 kts 36°
2026-04-27 23:15 25.95396 -48.50010 57273 ft 1255 kts 35°
2026-04-27 23:15 26.08859 -48.37834 57281 ft 1256 kts 35°
2026-04-27 23:16 26.22423 -48.25529 57250 ft 1257 kts 36°
2026-04-27 23:16 26.35981 -48.13192 57236 ft 1258 kts 36°
2026-04-27 23:17 26.49525 -48.00828 57248 ft 1258 kts 36°
2026-04-27 23:17 26.63065 -47.88429 57276 ft 1259 kts 36°
2026-04-27 23:18 26.76610 -47.75987 57288 ft 1259 kts 36°
2026-04-27 23:18 26.90143 -47.63515 57288 ft 1260 kts 36°
2026-04-27 23:19 27.03685 -47.50996 57268 ft 1261 kts 36°
2026-04-27 23:19 27.17214 -47.38448 57262 ft 1261 kts 36°
2026-04-27 23:20 27.30740 -47.25861 57283 ft 1262 kts 36°
2026-04-27 23:20 27.44250 -47.13248 57299 ft 1263 kts 36°
2026-04-27 23:21 27.57764 -47.00590 57295 ft 1263 kts 36°
2026-04-27 23:21 27.71271 -46.87897 57260 ft 1264 kts 36°
2026-04-27 23:22 27.84687 -46.75247 57272 ft 1264 kts 36°
2026-04-27 23:22 27.98187 -46.62476 57277 ft 1265 kts 36°
2026-04-27 23:23 28.11675 -46.49671 57280 ft 1265 kts 36°
2026-04-27 23:23 28.25159 -46.36829 57288 ft 1266 kts 36°
2026-04-27 23:24 28.38641 -46.23943 57319 ft 1267 kts 36°
2026-04-27 23:24 28.52105 -46.11030 57321 ft 1267 kts 37°
2026-04-27 23:25 28.65577 -45.98065 57270 ft 1267 kts 37°
2026-04-27 23:25 28.79018 -45.85084 57272 ft 1267 kts 37°
2026-04-27 23:26 28.92464 -45.72053 57279 ft 1268 kts 37°
2026-04-27 23:26 29.05891 -45.58995 57281 ft 1268 kts 37°
2026-04-27 23:27 29.19214 -45.45992 57287 ft 1267 kts 37°
2026-04-27 23:27 29.32614 -45.32867 57293 ft 1267 kts 37°
2026-04-27 23:28 29.46025 -45.19684 57269 ft 1267 kts 37°
2026-04-27 23:28 29.59397 -45.06491 57268 ft 1267 kts 37°
2026-04-27 23:29 29.72771 -44.93249 57268 ft 1266 kts 37°
2026-04-27 23:29 29.86109 -44.79995 57283 ft 1266 kts 37°
2026-04-27 23:30 29.99442 -44.66696 57267 ft 1266 kts 37°
2026-04-27 23:30 30.12668 -44.53456 57314 ft 1266 kts 38°
2026-04-27 23:31 30.25967 -44.40092 57270 ft 1266 kts 38°
2026-04-27 23:31 30.39261 -44.26685 57262 ft 1265 kts 38°
2026-04-27 23:32 30.52533 -44.13248 57288 ft 1265 kts 38°
2026-04-27 23:32 30.65777 -43.99791 57274 ft 1265 kts 38°
2026-04-27 23:33 30.79014 -43.86288 57252 ft 1265 kts 38°
2026-04-27 23:33 30.92132 -43.72856 57270 ft 1264 kts 38°
2026-04-27 23:34 31.05345 -43.59276 57266 ft 1264 kts 38°
2026-04-27 23:34 31.18525 -43.45677 57280 ft 1263 kts 39°
2026-04-27 23:35 31.31683 -43.32048 57260 ft 1263 kts 39°
2026-04-27 23:35 31.44825 -43.18382 57248 ft 1263 kts 39°
2026-04-27 23:36 31.57935 -43.04697 57254 ft 1262 kts 39°
2026-04-27 23:36 31.70959 -42.91047 57239 ft 1262 kts 39°
2026-04-27 23:37 31.84048 -42.77276 57233 ft 1261 kts 39°
2026-04-27 23:37 31.97110 -42.63477 57253 ft 1261 kts 39°
2026-04-27 23:38 32.10151 -42.49648 57230 ft 1260 kts 39°
2026-04-27 23:38 32.23165 -42.35791 57229 ft 1260 kts 39°
2026-04-27 23:39 32.36179 -42.21876 57223 ft 1260 kts 39°
2026-04-27 23:39 32.49164 -42.07938 57223 ft 1259 kts 39°
2026-04-27 23:40 32.62065 -41.94033 57232 ft 1258 kts 39°
2026-04-27 23:40 32.75001 -41.80033 57214 ft 1258 kts 40°
2026-04-27 23:41 32.85822 -41.68277 57214 ft 1258 kts 40°
2026-04-27 23:41 32.98723 -41.54211 57275 ft 1257 kts 40°
2026-04-27 23:42 33.11519 -41.40199 57209 ft 1257 kts 40°
2026-04-27 23:42 33.24382 -41.26055 57198 ft 1257 kts 40°
2026-04-27 23:43 33.37250 -41.11848 57226 ft 1257 kts 40°
2026-04-27 23:43 33.50090 -40.97609 57198 ft 1258 kts 40°
2026-04-27 23:44 33.62913 -40.83332 57194 ft 1258 kts 40°
2026-04-27 23:44 33.75738 -40.68989 57223 ft 1258 kts 40°
2026-04-27 23:45 33.88523 -40.54631 57185 ft 1259 kts 41°
2026-04-27 23:45 34.01312 -40.40206 57177 ft 1259 kts 41°